TimeCST,TemperatureF,Dew PointF,Humidity,Sea Level PressureIn,VisibilityMPH,Wind Direction,Wind SpeedMPH,Gust SpeedMPH,PrecipitationIn,Events,Conditions,WindDirDegrees,DateUTC
12:52 AM,39.9,35.1,83,30.08,-9999.0,SE,9.2,-,N/A,,Unknown,130,2013-03-09 06:52:00
1:52 AM,39.9,35.1,83,30.06,-9999.0,SE,11.5,-,N/A,,Unknown,130,2013-03-09 07:52:00
2:52 AM,39.9,34.0,79,30.02,-9999.0,SE,12.7,20.7,N/A,,Unknown,140,2013-03-09 08:52:00
3:52 AM,39.0,35.1,86,30.00,-9999.0,SSE,11.5,-,N/A,,Unknown,150,2013-03-09 09:52:00
4:52 AM,39.0,36.0,89,29.99,-9999.0,SE,9.2,-,N/A,,Unknown,140,2013-03-09 10:52:00
5:52 AM,39.0,36.0,89,29.97,-9999.0,SE,11.5,-,N/A,,Unknown,140,2013-03-09 11:52:00
6:52 AM,39.9,36.0,86,29.96,-9999.0,SE,8.1,-,N/A,,Unknown,140,2013-03-09 12:52:00
7:52 AM,39.9,37.0,89,29.95,-9999.0,SE,8.1,-,N/A,,Unknown,140,2013-03-09 13:52:00
8:52 AM,41.0,37.0,86,29.92,-9999.0,SE,9.2,-,N/A,,Unknown,130,2013-03-09 14:52:00
9:52 AM,42.1,37.0,82,29.90,-9999.0,SE,8.1,-,N/A,,Unknown,140,2013-03-09 15:52:00
10:52 AM,43.0,37.0,80,29.90,-9999.0,SE,3.5,-,N/A,,Unknown,130,2013-03-09 16:52:00
11:52 AM,44.1,37.0,76,29.86,-9999.0,ESE,5.8,-,N/A,,Unknown,120,2013-03-09 17:52:00
12:52 PM,46.0,37.0,71,29.82,-9999.0,ESE,5.8,-,N/A,,Unknown,120,2013-03-09 18:52:00
1:52 PM,46.0,37.0,71,29.78,-9999.0,East,5.8,-,N/A,,Unknown,100,2013-03-09 19:52:00
2:52 PM,46.9,37.0,68,29.78,-9999.0,ESE,3.5,-,N/A,,Unknown,120,2013-03-09 20:52:00
3:52 PM,46.0,37.0,71,29.77,-9999.0,SE,5.8,-,N/A,,Unknown,140,2013-03-09 21:52:00
4:52 PM,45.0,41.0,86,29.74,-9999.0,ESE,6.9,-,0.21,,Unknown,120,2013-03-09 22:52:00
5:52 PM,43.0,39.9,89,29.75,-9999.0,North,3.5,-,0.04,,Unknown,10,2013-03-09 23:52:00
6:52 PM,42.1,39.9,92,29.77,-9999.0,ESE,4.6,-,0.11,,Unknown,110,2013-03-10 00:52:00
7:52 PM,44.1,42.1,93,29.74,-9999.0,ESE,4.6,-,0.13,,Unknown,110,2013-03-10 01:52:00
8:52 PM,44.1,42.1,93,29.74,-9999.0,Calm,Calm,-,0.19,,Unknown,0,2013-03-10 02:52:00
9:52 PM,45.0,44.1,97,29.71,-9999.0,ESE,6.9,-,0.16,,Unknown,120,2013-03-10 03:52:00
10:52 PM,46.9,46.0,97,29.69,-9999.0,SE,8.1,-,0.05,,Unknown,130,2013-03-10 04:52:00
11:52 PM,48.0,-9999,N/A,29.68,-9999.0,SE,10.4,-,0.03,,Unknown,140,2013-03-10 05:52:00